Regional Weather Roundup
Issued by NWS Mt. Holly, NJ

Home | Current Version | Previous Version | Text Only | Print | Product List | Glossary On
Versions: 1 2 3 4 5 6 7 8 9 10 11 12 13 14 15 16 17 18 19 20 21 22 23 24 25 26 27
000
ASUS41 KPHI 190010
RWRPHI

REGIONAL WEATHER ROUNDUP
NATIONAL WEATHER SERVICE MOUNT HOLLY NJ
800 PM EDT FRI APR 18 2014

NOTE:  "FAIR" INDICATES FEW OR NO CLOUDS BELOW 12,000 FEET WITH NO
SIGNIFICANT WEATHER AND/OR OBSTRUCTIONS TO VISIBILITY.

 * = STATION DOES NOT REPORT PRECIPITATION (E.G. RAIN, SNOW, ETC.)
        OR FOG.

NJZ015>026-190100-
SOUTHERN NEW JERSEY

CITY           SKY/WX    TMP DP  RH WIND       PRES   REMARKS
POMONA         MOCLDY    40  35  83 E5        30.33F
6HR MIN TEMP:  40; 6HR MAX TEMP:  49;

RIO GRANDE*    CLOUDY    43  34  70 SE6       30.34S
MILLVILLE      MOCLDY    45  37  73 SE6       30.32F
WRIGHTSTOWN    CLOUDY    42  34  73 SE6       30.29F
MOUNT HOLLY    MOCLDY    46  35  65 SE6       30.31S
TRENTON        CLOUDY    50  30  46 CALM      30.29F
6HR MIN TEMP:  47; 6HR MAX TEMP:  52;


$$
NJZ001>014-190100-
NORTHERN NEW JERSEY

CITY           SKY/WX    TMP DP  RH WIND       PRES   REMARKS
SUSSEX         CLOUDY    50  28  42 SW3       30.27F
ANDOVER*         N/A     47  29  49 CALM      30.27F
MORRISTOWN     CLOUDY    46  30  53 S6        30.30F
NEWARK         CLOUDY    44  33  65 S5        30.30F
TETERBORO      CLOUDY    47  31  53 S7        30.29F
CALDWELL       CLOUDY    46  28  49 SW5       30.29F
SOMERVILLE     CLOUDY    47  31  53 SE5       30.28F
ALLAIRE*       CLOUDY    39  28  65 SE5       30.31F
TOMS RIVER*    MOCLDY    39  34  81 CALM      30.32F

$$
PAZ043-044-047-054-055-060>062-066>071-190100-
EASTERN PENNSYLVANIA

CITY           SKY/WX    TMP DP  RH WIND       PRES   REMARKS
PHILADELPHIA   CLOUDY    53  30  41 CALM      30.30F
6HR MIN TEMP:  50; 6HR MAX TEMP:  55;

NORTH PHILA    CLOUDY    52  30  43 SE3       30.30F
BLUE BELL      CLOUDY    52  32  46 CALM      30.28S
DOYLESTOWN     CLOUDY    47  32  56 CALM      30.28F
QUAKERTOWN*    CLOUDY    48  32  53 CALM      30.29S
POTTSTOWN      CLOUDY    50  32  50 CALM      30.29F
LANCASTER      CLOUDY    49  33  54 S7        30.27S
COATESVILLE    CLOUDY    48  32  53 CALM      30.29S
READING        CLOUDY    51  33  50 W5        30.27F
6HR MIN TEMP:  50; 6HR MAX TEMP:  56;

ALLENTOWN      CLOUDY    50  30  46 S5        30.28F
6HR MIN TEMP:  48; 6HR MAX TEMP:  53;

MOUNT POCONO   CLOUDY    42  29  59 S6        30.23F
6HR MIN TEMP:  42; 6HR MAX TEMP:  46;

HAZLETON       CLOUDY    45  28  53 S5        30.27S
WILKES BARRE   CLOUDY    49  29  46 S7G17     30.23F

$$
DEZALL-MDZ008-012-015-019-020-190100-
DELAWARE AND EASTERN MARYLAND

CITY           SKY/WX    TMP DP  RH WIND       PRES   REMARKS
WILMINGTON     CLOUDY    49  39  68 S9        30.30F
6HR MIN TEMP:  49; 6HR MAX TEMP:  54;

DOVER          CLOUDY    45  41  86 SE12      30.27F
GEORGETOWN     CLOUDY    45  37  73 E6        30.32F
6HR MIN TEMP:  45; 6HR MAX TEMP:  52;

EASTON         CLOUDY    50  41  71 CALM      30.33F
PATUXENT       CLOUDY    48  38  68 CALM      30.31R
OCEAN CITY     CLOUDY    44  38  79 NE5       30.34S
WALLOPS ISLAND CLOUDY    46  41  82 E7        30.34R
CAMBRIDGE      CLOUDY    52  41  66 CALM      30.30S
SALISBURY      CLOUDY    47  38  71 E6        30.32S

$$
PAZ001-021-NYZ056-072-MDZ011-DCZ001-190100-
OTHER NEARBY LOCATIONS

CITY           SKY/WX    TMP DP  RH WIND       PRES   REMARKS
HARRISBURG     CLOUDY    51  40  65 SE3       30.27S
STATE COLLEGE  CLEAR     54  32  43 S6        30.23S
WILLIAMSPORT   CLOUDY    51  32  48 VRB7      30.23F
BINGHAMTON     PTCLDY    49  31  49 S5        30.18F
NEW YORK CITY  CLOUDY    44  31  60 MISG      30.32F
BALTIMORE      CLOUDY    49  30  48 CALM      30.29S
WASHINGTON DC  CLOUDY    52  34  50 SE6       30.31R

$$



USA.gov is the U.S. government's official web portal to all federal, state and local government web resources and services.